W3KCF Weather Reports


time (UTC)temp
C
wind
direction
speed
KPH
gust
KPH
rain 1hr
cm
rain 24hr
cm
rain mn
cm
humidity
%
barometer
mb
20260506034008 20 308 0.0 3.2 0.00 0.05 0.05 52 1009.3
20260506033504 20 182 1.6 3.2 0.00 0.05 0.05 51 1009.3
20260506033023 20 317 0.0 3.2 0.00 0.05 0.05 50 1009.2
20260506032506 20 39 0.0 4.8 0.00 0.05 0.05 51 1009.1
20260506032008 21 208 1.6 4.8 0.00 0.05 0.05 49 1009.2
20260506031533 21 159 0.0 4.8 0.00 0.05 0.05 50 1009.1
20260506031011 21 18 0.0 6.4 0.00 0.05 0.05 49 1009.1
20260506030509 21 161 0.0 6.4 0.00 0.05 0.05 48 1009.0
20260506030025 21 94 0.0 6.4 0.00 0.05 0.05 48 1009.0
20260506025503 21 194 0.0 6.4 0.00 0.05 0.05 47 1009.1
20260506025007 21 339 0.0 6.4 0.00 0.05 0.05 48 1009.2
20260506024537 21 315 1.6 6.4 0.00 0.05 0.05 47 1009.1
20260506024007 21 65 0.0 4.8 0.00 0.05 0.05 47 1009.1
20260506023508 21 219 0.0 6.4 0.00 0.05 0.05 46 1009.2
20260506023020 21 340 0.0 6.4 0.00 0.05 0.05 47 1009.2
20260506022515 21 327 1.6 6.4 0.00 0.05 0.05 46 1009.1
20260506022008 21 251 0.0 4.8 0.00 0.05 0.05 46 1009.1
20260506021516 21 171 0.0 4.8 0.00 0.05 0.05 46 1009.0
20260506021008 21 86 0.0 8.0 0.00 0.05 0.05 46 1009.0
20260506020507 21 105 3.2 8.0 0.00 0.05 0.05 44 1009.0
20260506020016 21 163 1.6 6.4 0.00 0.05 0.05 45 1009.0
20260506015509 22 82 0.0 4.8 0.00 0.05 0.05 45 1009.0
20260506015006 22 143 0.0 6.4 0.00 0.05 0.05 45 1009.0
20260506014530 22 302 1.6 11.3 0.00 0.05 0.05 45 1008.9
20260506014008 22 297 3.2 11.3 0.00 0.05 0.05 44 1008.8
20260506013503 22 72 0.0 3.2 0.00 0.05 0.05 45 1008.8
20260506013027 22 60 0.0 3.2 0.00 0.05 0.05 45 1008.8
20260506012507 22 48 0.0 3.2 0.00 0.05 0.05 44 1008.7
20260506012004 22 55 0.0 4.8 0.00 0.05 0.05 45 1008.7
20260506011530 22 148 1.6 6.4 0.00 0.05 0.05 44 1008.5
20260506011010 22 327 1.6 6.4 0.00 0.05 0.05 43 1008.5
20260506010508 22 352 0.0 3.2 0.00 0.05 0.05 44 1008.5
20260506010024 22 77 0.0 3.2 0.00 0.05 0.05 43 1008.5
20260506005504 22 22 0.0 3.2 0.00 0.05 0.05 44 1008.4
20260506005007 22 34 0.0 3.2 0.00 0.05 0.05 43 1008.3
20260506004523 23 117 0.0 4.8 0.00 0.05 0.05 43 1008.3
20260506004004 23 83 0.0 4.8 0.00 0.05 0.05 42 1008.3
20260506003510 23 220 0.0 8.0 0.00 0.05 0.05 43 1008.3
20260506003024 23 58 0.0 11.3 0.00 0.05 0.05 41 1008.1
20260506002511 23 182 3.2 11.3 0.00 0.05 0.05 40 1008.1
20260506002008 23 171 0.0 9.7 0.00 0.05 0.05 41 1008.1
20260506001519 23 59 3.2 9.7 0.00 0.05 0.05 41 1008.0
20260506001009 23 54 0.0 6.4 0.00 0.05 0.05 42 1008.0
20260506000509 23 146 1.6 6.4 0.00 0.05 0.05 41 1007.9
20260506000019 23 84 0.0 4.8 0.00 0.05 0.05 40 1007.9
20260505235507 24 97 1.6 4.8 0.00 0.05 0.05 41 1007.9
20260505235008 24 89 0.0 6.4 0.00 0.05 0.05 40 1007.8
20260505234526 24 61 1.6 6.4 0.00 0.05 0.05 40 1007.7
20260505234007 24 151 0.0 6.4 0.00 0.05 0.05 39 1007.6
20260505233506 24 122 0.0 11.3 0.00 0.05 0.05 41 1007.7
20260505233027 24 340 1.6 11.3 0.00 0.05 0.05 39 1007.6
20260505232512 24 62 0.0 4.8 0.00 0.05 0.05 41 1007.6
20260505232006 24 76 1.6 11.3 0.00 0.05 0.05 39 1007.6
20260505231528 25 19 1.6 12.9 0.00 0.05 0.05 39 1007.6
20260505231008 25 78 3.2 12.9 0.00 0.05 0.05 38 1007.5
20260505230509 25 51 3.2 9.7 0.00 0.05 0.05 38 1007.5
20260505230027 25 180 0.0 6.4 0.00 0.05 0.05 38 1007.4
20260505225508 25 34 0.0 4.8 0.00 0.05 0.05 39 1007.3
20260505225010 25 202 0.0 6.4 0.00 0.05 0.05 40 1007.1
20260505224523 25 229 1.6 12.9 0.00 0.05 0.05 39 1007.0
20260505224007 25 86 1.6 12.9 0.00 0.05 0.05 38 1007.1
20260505223510 25 74 1.6 8.0 0.00 0.05 0.05 39 1007.1
20260505223030 25 141 1.6 4.8 0.00 0.05 0.05 38 1007.0
20260505222509 25 74 0.0 12.9 0.00 0.05 0.05 39 1007.0
20260505222009 25 171 1.6 12.9 0.00 0.05 0.05 37 1007.0
20260505221525 25 148 3.2 11.3 0.00 0.05 0.05 38 1007.0
20260505221011 25 116 1.6 17.7 0.00 0.05 0.05 37 1007.0
20260505220509 25 67 6.4 17.7 0.00 0.05 0.05 36 1006.9
20260505220020 25 203 3.2 12.9 0.00 0.05 0.05 36 1007.0
20260505215509 25 144 1.6 12.9 0.00 0.05 0.05 37 1006.8
20260505215006 26 90 3.2 11.3 0.00 0.05 0.05 36 1006.8
20260505214523 26 119 3.2 20.9 0.00 0.05 0.05 36 1006.7
20260505214007 26 325 4.8 20.9 0.00 0.05 0.05 36 1006.6
20260505213507 26 74 0.0 14.5 0.00 0.05 0.05 35 1006.8
20260505213029 26 142 3.2 22.5 0.00 0.05 0.05 35 1006.8
20260505212503 26 103 3.2 22.5 0.00 0.05 0.05 37 1006.7
20260505212007 27 339 3.2 12.9 0.00 0.05 0.05 35 1006.7
20260505211512 27 10 1.6 19.3 0.00 0.05 0.05 37 1006.5
20260505211002 27 109 6.4 19.3 0.00 0.05 0.05 34 1006.5
20260505210508 27 30 4.8 17.7 0.00 0.05 0.05 34 1006.7
20260505210008 27 329 3.2 19.3 0.00 0.05 0.05 34 1006.5
20260505205503 27 205 3.2 19.3 0.00 0.05 0.05 37 1006.8
20260505205005 27 100 3.2 12.9 0.00 0.05 0.05 35 1006.5
20260505204506 28 192 1.6 14.5 0.00 0.05 0.05 35 1006.4
20260505204008 28 344 4.8 16.1 0.00 0.05 0.05 34 1006.5
20260505203504 28 360 4.8 16.1 0.00 0.05 0.05 35 1006.6
20260505203006 28 154 4.8 19.3 0.00 0.05 0.05 34 1006.5
20260505202507 28 186 3.2 19.3 0.00 0.05 0.05 34 1006.4
20260505202003 27 284 6.4 20.9 0.00 0.05 0.05 32 1006.6
20260505201511 28 141 8.0 20.9 0.00 0.05 0.05 30 1006.5
20260505201007 28 68 3.2 12.9 0.00 0.05 0.05 29 1006.6
20260505200505 28 331 3.2 14.5 0.00 0.05 0.05 30 1006.6
20260505200027 28 149 4.8 17.7 0.00 0.05 0.05 28 1006.7
20260505195505 28 352 8.0 19.3 0.00 0.05 0.05 29 1006.8
20260505195003 28 159 3.2 19.3 0.00 0.05 0.05 29 1007.0
20260505194520 28 258 3.2 17.7 0.00 0.05 0.05 28 1007.0
20260505194003 28 9 4.8 16.1 0.00 0.05 0.05 29 1007.0
20260505193506 28 132 4.8 11.3 0.00 0.05 0.05 31 1006.9
20260505193018 28 153 1.6 19.3 0.00 0.05 0.05 29 1007.1
20260505192504 28 85 1.6 19.3 0.00 0.05 0.05 31 1007.1
20260505192009 28 171 6.4 16.1 0.00 0.05 0.05 29 1007.1
20260505191519 28 127 4.8 16.1 0.00 0.05 0.05 30 1007.2
20260505191003 28 182 6.4 22.5 0.00 0.05 0.05 29 1007.5
20260505190507 28 155 6.4 22.5 0.00 0.05 0.05 29 1007.5
20260505190019 28 105 3.2 17.7 0.00 0.05 0.05 27 1007.6
20260505185507 28 10 6.4 24.1 0.00 0.05 0.05 29 1007.6
20260505185010 28 175 8.0 24.1 0.00 0.05 0.05 29 1007.5
20260505184512 28 86 4.8 16.1 0.00 0.05 0.05 30 1007.6
20260505184007 28 127 3.2 11.3 0.00 0.05 0.05 35 1007.7
20260505183507 28 104 3.2 19.3 0.00 0.05 0.05 34 1007.6
20260505183010 27 324 9.7 19.3 0.00 0.05 0.05 31 1007.7
20260505182507 27 304 4.8 32.2 0.00 0.05 0.05 31 1007.8
20260505182006 27 262 6.4 32.2 0.00 0.05 0.05 30 1007.8
20260505181506 27 186 6.4 37.0 0.00 0.05 0.05 30 1007.9
20260505181004 27 270 3.2 37.0 0.00 0.05 0.05 35 1008.0
20260505180502 27 159 6.4 24.1 0.00 0.05 0.05 37 1008.3
20260505180025 27 270 4.8 19.3 0.00 0.05 0.05 37 1008.4
20260505175509 27 124 4.8 19.3 0.00 0.05 0.05 38 1008.3
20260505175005 27 109 3.2 11.3 0.00 0.05 0.05 38 1008.5
20260505174524 27 132 3.2 22.5 0.00 0.05 0.05 37 1008.4
20260505174004 27 169 3.2 22.5 0.00 0.05 0.05 36 1008.5
20260505173504 27 148 4.8 17.7 0.00 0.05 0.05 36 1008.6
20260505173022 27 215 3.2 14.5 0.00 0.05 0.05 41 1008.5
20260505172505 26 152 3.2 19.3 0.00 0.05 0.05 39 1008.6
20260505172008 26 166 3.2 19.3 0.00 0.05 0.05 37 1008.6
20260505171520 27 215 6.4 17.7 0.00 0.05 0.05 40 1008.7
20260505171002 27 14 4.8 17.7 0.00 0.05 0.05 37 1008.7
20260505170507 27 171 1.6 16.1 0.00 0.05 0.05 46 1008.7
20260505170020 26 144 4.8 16.1 0.00 0.05 0.05 41 1008.8
20260505165502 26 92 3.2 14.5 0.00 0.05 0.05 43 1008.8
20260505165006 26 181 4.8 20.9 0.00 0.05 0.05 42 1008.9
20260505164516 26 9 4.8 20.9 0.00 0.05 0.05 46 1008.9
20260505164011 26 171 1.6 12.9 0.00 0.05 0.05 46 1008.9
20260505163510 26 185 3.2 12.9 0.00 0.05 0.05 41 1009.0
20260505163016 26 310 4.8 12.9 0.00 0.05 0.05 40 1009.1
20260505162507 26 175 3.2 12.9 0.00 0.05 0.05 40 1009.3
20260505162008 26 173 4.8 11.3 0.00 0.05 0.05 42 1009.2
20260505161508 26 206 3.2 9.7 0.00 0.05 0.05 43 1009.2
20260505161007 25 128 1.6 11.3 0.00 0.05 0.05 42 1009.2
20260505160509 25 323 1.6 11.3 0.00 0.05 0.05 46 1009.3
20260505153025 24 141 4.8 19.3 0.00 0.05 0.05 46 1009.6
20260505152506 24 175 6.4 11.3 0.00 0.05 0.05 48 1009.6
20260505152013 23 134 1.6 14.5 0.00 0.05 0.05 49 1009.7
20260505151526 23 332 3.2 14.5 0.00 0.05 0.05 49 1009.9
20260505151006 23 153 6.4 12.9 0.00 0.05 0.05 49 1009.8
20260505150507 23 123 1.6 9.7 0.00 0.05 0.05 50 1009.9
20260505140509 20 66 4.8 12.9 0.00 0.05 0.05 57 1010.6
20260505125009 14 91 0.0 3.2 0.00 0.05 0.05 83 1010.6
20260505124529 13 232 0.0 3.2 0.00 0.05 0.05 86 1010.6
20260505124002 13 326 0.0 3.2 0.00 0.05 0.05 90 1010.5
20260505123510 13 9 0.0 4.8 0.00 0.05 0.05 92 1010.6
20260505123028 12 322 1.6 4.8 0.00 0.05 0.05 94 1010.4
20260505122513 12 59 0.0 3.2 0.00 0.05 0.05 94 1010.5
20260505122011 12 63 0.0 3.2 0.00 0.05 0.05 94 1010.6
20260505121521 12 64 0.0 3.2 0.00 0.05 0.05 94 1010.7
20260505121009 12 118 0.0 3.2 0.00 0.05 0.05 94 1010.8
20260505120508 11 64 0.0 3.2 0.00 0.05 0.05 94 1010.7
20260505120029 11 49 0.0 3.2 0.00 0.05 0.05 94 1010.7
20260505115508 11 49 0.0 3.2 0.00 0.05 0.05 94 1010.5
20260505115007 11 37 0.0 3.2 0.00 0.05 0.05 94 1010.4
20260505114527 11 17 0.0 1.6 0.00 0.05 0.05 94 1010.3
20260505114008 10 252 0.0 0.0 0.00 0.05 0.05 93 1010.2
20260505113506 10 252 0.0 0.0 0.00 0.05 0.05 93 1010.4
20260505113028 10 252 0.0 0.0 0.00 0.05 0.05 93 1010.4
20260505112503 10 252 0.0 1.6 0.00 0.05 0.05 93 1010.4
20260505112006 10 252 0.0 1.6 0.00 0.05 0.05 92 1010.3
20260505111513 10 243 0.0 0.0 0.00 0.05 0.05 92 1010.2
20260505111003 10 319 0.0 0.0 0.00 0.05 0.05 92 1010.2
20260505110504 10 319 0.0 0.0 0.00 0.05 0.05 91 1010.1
20260505102003 10 304 0.0 0.0 0.03 0.05 0.05 92 1010.0
20260505101538 10 304 0.0 0.0 0.03 0.05 0.05 92 1009.7
20260505101007 10 304 0.0 0.0 0.03 0.05 0.05 92 1009.6
20260505100503 10 304 0.0 0.0 0.03 0.05 0.05 92 1009.5
20260505100020 10 304 0.0 0.0 0.05 0.05 0.05 92 1009.5
20260505095504 10 304 0.0 0.0 0.05 0.05 0.05 92 1009.4
20260505095003 10 304 0.0 1.6 0.05 0.05 0.05 92 1009.4
20260505094521 10 304 0.0 1.6 0.05 0.05 0.05 92 1009.4
20260505094003 10 312 0.0 0.0 0.05 0.05 0.05 92 1009.3
20260505093505 10 312 0.0 4.8 0.03 0.03 0.03 92 1009.4
20260505093016 9 310 1.6 4.8 0.03 0.03 0.03 91 1009.6
20260505092506 9 317 1.6 3.2 0.03 0.03 0.03 91 1009.4
20260505092008 9 34 0.0 3.2 0.03 0.03 0.03 90 1009.8
20260505091511 9 352 0.0 3.2 0.03 0.03 0.03 89 1010.3
20260505091004 9 59 0.0 1.6 0.03 0.03 0.03 88 1010.2
20260505090505 8 275 0.0 3.2 0.03 0.03 0.03 88 1010.3
20260505090017 8 13 0.0 3.2 0.00 0.00 0.00 87 1010.3
20260505085506 8 309 0.0 3.2 0.00 0.00 0.00 86 1010.3
20260505085006 8 309 0.0 3.2 0.00 0.00 0.00 85 1010.3
20260505084511 8 308 0.0 3.2 0.00 0.00 0.00 84 1010.0
20260505084005 8 308 0.0 0.0 0.00 0.00 0.00 83 1009.8
20260505083503 8 308 0.0 0.0 0.00 0.00 0.00 84 1009.8
20260505083024 8 308 0.0 0.0 0.00 0.00 0.00 83 1009.7
20260505082505 8 308 0.0 0.0 0.00 0.00 0.00 83 1009.5
20260505082002 8 308 0.0 0.0 0.00 0.00 0.00 83 1009.5
20260505081525 8 308 0.0 0.0 0.00 0.00 0.00 83 1009.5
20260505081007 8 308 0.0 0.0 0.00 0.00 0.00 83 1009.5
20260505080504 8 308 0.0 0.0 0.00 0.00 0.00 83 1009.5
20260505080024 9 308 0.0 0.0 0.00 0.00 0.00 83 1009.4
20260505075506 9 308 0.0 0.0 0.00 0.00 0.00 83 1009.4
20260505075012 9 308 0.0 0.0 0.00 0.00 0.00 83 1009.3
20260505074527 9 308 0.0 0.0 0.00 0.00 0.00 84 1009.3
20260505074003 9 308 0.0 0.0 0.00 0.00 0.00 84 1009.4
20260505073511 8 308 0.0 0.0 0.00 0.00 0.00 83 1009.4
20260505073017 8 308 0.0 0.0 0.00 0.00 0.00 83 1009.4
20260505072502 8 308 0.0 0.0 0.00 0.00 0.00 83 1009.4
20260505072007 8 308 0.0 0.0 0.00 0.00 0.00 83 1009.4
20260505071528 8 308 0.0 0.0 0.00 0.00 0.00 83 1009.4
20260505071007 8 308 0.0 0.0 0.00 0.00 0.00 83 1009.4
20260505070509 8 312 0.0 0.0 0.00 0.00 0.00 83 1009.5
20260505070012 8 312 0.0 0.0 0.00 0.00 0.00 83 1009.4
20260505065508 8 312 0.0 3.2 0.00 0.00 0.00 82 1009.4
20260505065007 8 312 0.0 1.6 0.00 0.00 0.00 82 1009.4
20260505064509 8 292 0.0 1.6 0.00 0.00 0.00 82 1009.4
20260505064007 8 279 0.0 1.6 0.00 0.00 0.00 82 1009.4
20260505063505 8 275 0.0 3.2 0.00 0.00 0.00 82 1009.5
20260505063028 8 275 0.0 3.2 0.00 0.00 0.00 82 1009.5
20260505062507 8 267 0.0 3.2 0.00 0.00 0.00 81 1009.5
20260505062005 8 267 0.0 1.6 0.00 0.00 0.00 81 1009.5
20260505061526 8 275 0.0 0.0 0.00 0.00 0.00 81 1009.5
20260505061007 8 275 0.0 0.0 0.00 0.00 0.00 81 1009.6
20260505060504 9 275 0.0 0.0 0.00 0.00 0.00 81 1009.6
20260505060037 9 275 0.0 1.6 0.00 0.00 0.00 81 1009.6
20260505055506 9 275 0.0 1.6 0.00 0.00 0.00 81 1009.6
20260505055012 9 275 0.0 0.0 0.00 0.00 0.00 81 1009.6
20260505054524 9 275 0.0 0.0 0.00 0.00 0.00 81 1009.7
20260505054006 9 275 0.0 0.0 0.00 0.00 0.00 81 1009.7
20260505053511 9 275 0.0 0.0 0.00 0.00 0.00 80 1009.8
20260505053024 9 275 0.0 0.0 0.00 0.00 0.00 80 1009.7
20260505052504 9 275 0.0 0.0 0.00 0.00 0.00 79 1009.7
20260505052008 9 275 0.0 0.0 0.00 0.00 0.00 79 1009.6
20260505051525 9 275 0.0 1.6 0.00 0.00 0.00 78 1009.5
20260505051010 9 275 0.0 3.2 0.00 0.00 0.00 78 1009.6
20260505050507 9 275 0.0 3.2 0.00 0.00 0.00 78 1009.6
20260505041528 10 271 0.0 0.0 0.00 0.00 0.00 75 1009.4
20260505041006 10 271 0.0 0.0 0.00 0.00 0.00 75 1009.5
20260505040503 11 271 0.0 1.6 0.00 0.00 0.00 73 1009.5
20260505040025 11 271 0.0 1.6 0.00 0.00 0.00 72 1009.4
20260505035507 11 271 0.0 0.0 0.00 0.00 0.00 70 1009.3
20260505035011 11 271 0.0 0.0 0.00 0.00 0.00 71 1009.3
20260505034526 11 271 0.0 3.2 0.00 0.00 0.00 70 1009.3